Jonesville, VA

3:59 AM EST on January 22, 2017 (GMT -0500)
Jonesville

Weather History for K0VG - September, 2012

Change the Weather History Date:

Friday, September 21, 2012

  Actual Average (KLNP) Record (KLNP)
Temperature  
Mean Temperature 64 °F -  
Max Temperature 77 °F 71 °F 86 °F (2010)
Min Temperature 50 °F 51 °F 41 °F (2006)
Degree Days  
Heating Degree Days 2    
Growing Degree Days 14 (Base 50)    
Moisture  
Dew Point 55 °F    
Average Humidity 81    
Maximum Humidity 100    
Minimum Humidity 47    
Precipitation  
Precipitation 0.00 in - - ()
Sea Level Pressure  
Sea Level Pressure 30.07 in    
Wind  
Wind Speed 2 mph (SW)    
Max Wind Speed 13 mph    
Max Gust Speed -    
Visibility 7 miles    
Events Fog    
Averages and records for this station are not official NWS values.
T = Trace of Precipitation, MM = Missing Value Source: NWS Daily Summary

Daily Weather History Graph

Daily Weather History Graph

Search for Another Location

Airport or City:

Trip Planner

Search our weather history database for the weather conditions in past years. The results will help you decide how hot, cold, wet, or windy it might be!

Date:

Astronomy

Sep. 21, 2012 Rise Set
Actual Time 7:20 AM EDT 7:30 PM EDT
Civil Twilight 6:54 AM EDT 7:56 PM EDT
Nautical Twilight 6:24 AM EDT 8:26 PM EDT
Astronomical Twilight 5:53 AM EDT 8:56 PM EDT
Moon 1:30 PM EDT (9/21) 11:40 PM EDT (9/21)
Length of Visible Light 13h 01m
Length of Day
12h 10m
Waxing Crescent, 37% of the Moon is Illuminated
Sep 21
Waxing Crescent
Sep 22
First Quarter
Sep 29
Full
Oct 8
Last Quarter
Oct 15
New

Hourly Weather History & Observations

Time (EDT) Temp. Dew Point Humidity Pressure Visibility Wind Dir Wind Speed Gust Speed Precip Events Conditions
12:15 AM 55.4 °F 55.4 °F 100% 30.12 in 8.0 mi Calm Calm - N/A   Unknown
12:35 AM 53.6 °F 53.6 °F 100% 30.11 in 6.0 mi Calm Calm - N/A   Mist
12:55 AM 53.6 °F 53.6 °F 100% 30.11 in 5.0 mi Calm Calm - N/A   Mist
1:15 AM 53.6 °F 53.6 °F 100% 30.12 in 6.0 mi Calm Calm - N/A   Mist
1:35 AM 53.6 °F 53.6 °F 100% 30.12 in 7.0 mi Calm Calm - N/A   Unknown
1:55 AM 53.6 °F 53.6 °F 100% 30.12 in 5.0 mi Calm Calm - N/A   Mist
2:15 AM 53.6 °F 53.6 °F 100% 30.12 in 5.0 mi Calm Calm - N/A   Mist
2:35 AM 51.8 °F 51.8 °F 100% 30.12 in 5.0 mi Calm Calm - N/A   Mist
2:55 AM 51.8 °F 51.8 °F 100% 30.12 in 2.5 mi Calm Calm - N/A   Mist
3:15 AM 51.8 °F 51.8 °F 100% 30.12 in 0.5 mi Calm Calm - N/A Fog Fog
3:35 AM 51.8 °F 51.8 °F 100% 30.12 in 0.5 mi Calm Calm - N/A Fog Fog
3:55 AM 50.0 °F 50.0 °F 100% 30.12 in 0.8 mi Calm Calm - N/A   Mist
4:15 AM 51.8 °F 51.8 °F 100% 30.12 in 0.5 mi Calm Calm - N/A Fog Fog
4:35 AM 51.8 °F 51.8 °F 100% 30.12 in 0.2 mi Calm Calm - N/A Fog Fog
4:55 AM 51.8 °F 51.8 °F 100% 30.12 in 0.2 mi Calm Calm - N/A Fog Fog
5:15 AM 51.8 °F 51.8 °F 100% 30.12 in 0.2 mi Calm Calm - N/A Fog Fog
5:35 AM 51.8 °F 51.8 °F 100% 30.12 in 1.0 mi Calm Calm - N/A   Mist
5:55 AM 50.0 °F 50.0 °F 100% 30.12 in 0.5 mi Calm Calm - N/A Fog Fog
6:15 AM 50.0 °F 50.0 °F 100% 30.12 in 0.2 mi Calm Calm - N/A Fog Fog
6:35 AM 50.0 °F 50.0 °F 100% 30.12 in 0.5 mi Calm Calm - N/A Fog Fog
6:55 AM 51.8 °F 51.8 °F 100% 30.12 in 6.0 mi Calm Calm - N/A   Mist
7:15 AM 50.0 °F 50.0 °F 100% 30.13 in 5.0 mi Calm Calm - N/A   Mist
7:35 AM 50.0 °F 50.0 °F 100% 30.13 in 0.5 mi Calm Calm - N/A Fog Fog
7:55 AM 51.8 °F 51.8 °F 100% 30.13 in 2.0 mi Calm Calm - N/A   Overcast
8:15 AM 51.8 °F 51.8 °F 100% 30.13 in 5.0 mi Calm Calm - N/A   Mostly Cloudy
8:35 AM 53.6 °F 53.6 °F 100% 30.13 in 8.0 mi Calm Calm - N/A   Mostly Cloudy
8:55 AM 55.4 °F 55.4 °F 100% 30.13 in 5.0 mi Calm Calm - N/A   Mostly Cloudy
9:15 AM 57.2 °F 57.2 °F 100% 30.13 in 8.0 mi Calm Calm - N/A   Overcast
9:35 AM 59.0 °F 59.0 °F 100% 30.13 in 10.0 mi Calm Calm - N/A   Mostly Cloudy
9:55 AM 60.8 °F 60.8 °F 100% 30.13 in 10.0 mi Calm Calm - N/A   Partly Cloudy
10:15 AM 62.6 °F 59.0 °F 88% 30.13 in 10.0 mi Calm Calm - N/A   Clear
10:35 AM 64.4 °F 59.0 °F 83% 30.13 in 10.0 mi Calm Calm - N/A   Clear
10:55 AM 68.0 °F 59.0 °F 73% 30.13 in 10.0 mi SW 4.6 mph - N/A   Clear
11:15 AM 68.0 °F 59.0 °F 73% 30.13 in 10.0 mi Calm Calm - N/A   Clear
11:35 AM 69.8 °F 59.0 °F 68% 30.13 in 10.0 mi SW 8.1 mph - N/A   Clear
11:55 AM 71.6 °F 59.0 °F 64% 30.12 in 10.0 mi South 5.8 mph - N/A   Clear
12:15 PM 71.6 °F 57.2 °F 60% 30.11 in 10.0 mi WSW 6.9 mph - N/A   Partly Cloudy
12:35 PM 73.4 °F 55.4 °F 53% 30.11 in 10.0 mi SW 10.4 mph - N/A   Clear
12:55 PM 73.4 °F 55.4 °F 53% 30.10 in 10.0 mi WSW 6.9 mph - N/A   Clear
1:15 PM 73.4 °F 55.4 °F 53% 30.09 in 10.0 mi WSW 4.6 mph - N/A   Partly Cloudy
1:35 PM 75.2 °F 53.6 °F 47% 30.08 in 10.0 mi SW 11.5 mph - N/A   Clear
1:55 PM 75.2 °F 55.4 °F 50% 30.08 in 10.0 mi SW 4.6 mph - N/A   Clear
2:15 PM 75.2 °F 55.4 °F 50% 30.07 in 10.0 mi SW 10.4 mph - N/A   Partly Cloudy
2:35 PM 77.0 °F 55.4 °F 47% 30.06 in 10.0 mi SSW 12.7 mph - N/A   Partly Cloudy
2:55 PM 77.0 °F 55.4 °F 47% 30.05 in 10.0 mi SSW 9.2 mph - N/A   Clear
3:15 PM 77.0 °F 55.4 °F 47% 30.05 in 10.0 mi WSW 6.9 mph - N/A   Partly Cloudy
3:35 PM 77.0 °F 55.4 °F 47% 30.04 in 10.0 mi WSW 8.1 mph - N/A   Clear
3:55 PM 77.0 °F 55.4 °F 47% 30.03 in 10.0 mi SSW 8.1 mph - N/A   Partly Cloudy
4:15 PM 77.0 °F 55.4 °F 47% 30.02 in 10.0 mi SW 6.9 mph - N/A   Partly Cloudy
4:35 PM 77.0 °F 57.2 °F 50% 30.01 in 10.0 mi SSW 4.6 mph - N/A   Partly Cloudy
4:55 PM 77.0 °F 55.4 °F 47% 30.01 in 10.0 mi SSW 6.9 mph - N/A   Partly Cloudy
5:15 PM 75.2 °F 57.2 °F 53% 30.00 in 10.0 mi South 8.1 mph - N/A   Scattered Clouds
5:35 PM 77.0 °F 57.2 °F 50% 30.00 in 10.0 mi South 6.9 mph - N/A   Partly Cloudy
5:55 PM 77.0 °F 57.2 °F 50% 30.00 in 10.0 mi SSW 9.2 mph - N/A   Partly Cloudy
6:15 PM 75.2 °F 59.0 °F 57% 29.99 in 10.0 mi South 6.9 mph - N/A   Clear
6:35 PM 75.2 °F 57.2 °F 53% 29.99 in 10.0 mi South 5.8 mph - N/A   Clear
6:55 PM 73.4 °F 55.4 °F 53% 29.99 in 10.0 mi SSW 4.6 mph - N/A   Clear
7:15 PM 73.4 °F 57.2 °F 57% 29.99 in 10.0 mi South 3.5 mph - N/A   Clear
7:35 PM 68.0 °F 59.0 °F 73% 29.99 in 10.0 mi Calm Calm - N/A   Clear
7:55 PM 66.2 °F 59.0 °F 78% 29.99 in 10.0 mi Calm Calm - N/A   Unknown
8:15 PM 62.6 °F 57.2 °F 82% 29.99 in 10.0 mi Calm Calm - N/A   Unknown
8:35 PM 62.6 °F 57.2 °F 82% 29.99 in 10.0 mi Calm Calm - N/A   Unknown
8:55 PM 62.6 °F 57.2 °F 82% 29.99 in 10.0 mi Calm Calm - N/A   Unknown
9:15 PM 62.6 °F 59.0 °F 88% 29.99 in 10.0 mi Calm Calm - N/A   Unknown
9:35 PM 60.8 °F 59.0 °F 94% 29.99 in 10.0 mi Calm Calm - N/A   Unknown
10:15 PM 60.8 °F 59.0 °F 94% 30.00 in 10.0 mi Calm Calm - N/A   Unknown
10:35 PM 60.8 °F 59.0 °F 94% 30.00 in 10.0 mi Calm Calm - N/A   Unknown
10:55 PM 59.0 °F 57.2 °F 94% 30.00 in 10.0 mi Calm Calm - N/A   Unknown
11:15 PM 59.0 °F 59.0 °F 100% 30.00 in 10.0 mi Calm Calm - N/A   Unknown
11:35 PM 59.0 °F 59.0 °F 100% 30.00 in 10.0 mi Calm Calm - N/A   Unknown
11:55 PM 59.0 °F 57.2 °F 94% 30.00 in 10.0 mi Calm Calm - N/A   Unknown